Find Local Weather

World > North America > United States > Georgia

Uvalda, Georgia Regional Weather

Lat: 32.04N, Lon: 82.51W
Wx Zone: GAZ112
Warning FLW SPECIAL WEATHER STATEMENT (More Info. Click Here) Warning
Feedback
Expires:201804200000;;207161
ASUS42 KFFC 192310
RWRGA 
WEATHER ROUNDUP FOR GEORGIA
NATIONAL WEATHER SERVICE PEACHTREE CITY GA
700 PM EDT THU APR 19 2018

NOTE: "FAIR" INDICATES FEW OR NO CLOUDS BELOW 12,000 FEET WITH NO
SIGNIFICANT WEATHER AND/OR OBSTRUCTIONS TO VISIBILITY. 

* = USE WITH CAUTION. THE STATIONS MARKED WITH AN ASTERISK MAY NOT
REPORT WEATHER SUCH AS PRECIPITATION, FOG, OR THUNDER AND ARE NOT 
QUALITY CONTROLLED BY NWS.

THE REMARK "TC" DENOTES TEMPERATURE READING IN DEGREES CELSIUS.


GAZ099>101-110>166-200000-
SOUTH GEORGIA
  
CITY           SKY/WX    TMP DP  RH WIND       PRES   REMARKS
SAVANNAH       FAIR      81  56  42 W16       29.96R                  
VALDOSTA       FAIR      80  58  46 VRB6      30.01R                  
ALMA           FAIR      81  56  42 W8        29.98S                  
ST SIMONS      FAIR      84  59  42 W10       29.96R                  
FT STEWART     FAIR      82  55  39 W9        29.94S                  
ALBANY         FAIR      79  47  32 NW13      30.04R                  
HUNTER AFB     FAIR      81  55  41 W13       29.93R                  
MOODY AFB      FAIR      80  59  48 W6        29.99S                  
BRUNSWICK      FAIR      81  55  41 W13G20    29.98R                  

  
CITY           SKY/WX    TMP DP  RH WIND       PRES   REMARKS
BAINBRIDGE*      N/A     81  61  50 W10       30.03R                  
MOULTRIE*      FAIR      79  57  47 W5        30.02S                  
VIDALIA*       FAIR      81  52  36 NW7G18    29.99R                  
WAYCROSS*      FAIR      82  54  38 W13G18    29.99R                  
DOUGLAS*       PTSUNNY   79  55  44 W6        30.01S                  
$$
  

SKY/WX - Weather  TMP - Temperature  DP - Dewpoint  RH - Relative Humidity
WIND - Wind Direction/Speed PRES - Barometric Pressure